FENGYUN 1C DEB, 30317

Orbit data source: Space-Track

FENGYUN 1C DEB, 30317 is space debris in SSO originally from a launch on Mon, 10 May 1999 UTC launched from the Taiyaun Space Center, China (TSC). Fengyun 1C debris stems from the Chinese weather satellite Fengyun-1C, which was intentionally destroyed by a Chinese anti-satellite missile in 2007. This event dramatically increased the amount of space debris, with thousands of trackable fragments posing hazards to satellites and human spaceflight. The Fengyun 1C debris cloud has become a focal point in discussions about space sustainability and the need for international regulations to prevent the creation of new debris.

Loading next visibility...
Identifier
30317, 1999-025AAE
Orbit
SSO
Country
Flag of CNCN / PRC
Related business
Manufacturer
Unknown
Mission
Spacecraft
Bus & Motor
Unknown
Mass
Unknown
Launch date (UTC)
1999-05-10 (26 years ago)
Launch vehicle
Unknown
Launch site
Taiyaun Space Center, China (TSC)
Object type
Payload
Rocket body
Debris
Shape & HBR
Unknown
Radar Cross Section
Small (<0.1 m²)

Expand to show TLE details & history
Last TLE update: 14 hours ago

TLE from 14 hours ago
0 FENGYUN 1C DEB
1 30317U 99025AAE 25258.25896598  .00000034  00000-0  45969-4 0  9997
2 30317  98.7865 261.2404 0025468 162.8456 197.3579 14.06873807957696
Epoch: 2025-09-15T06:12Z
TLE epoch observation values (Epoch: 2025-09-15T06:12:54.66Z)
Latitude
-0.00007°
Longitude
173.54647°
Altitude
890.61 km
Speed
7.398 km/s
True Right ascension
17h 24m 57s
True Declination
0° 00' 00"
Sunlit
Object was in daylight at epoch
Visualization orbit readout
Latitude
Unknown
Longitude
Unknown
Altitude
Unknown
Speed
Unknown
Apparent Right ascension
Unknown
Apparent Declination
Unknown
Sunlit
N/A
Visualization observer readout
Local Sidereal Time
12:40:29
Azimuth
Unknown
Elevation
Unknown
Doppler factor
Unknown
Orbital elements
Apogee altitude
885.722 km
Perigee altitude
848.817 km
Semi-major axis
7,245.406 km
Eccentricity
0.00255
Inclination
98.7865°
RAAN
261.2404°
Arg. of periapsis
162.8456°
True anomaly
197.2711°
Mean anomaly
197.3579°
Eccentric anomaly
197.31447°
Mean motion
3.51924 °/min
Orbital period
102.29 mins
BSTAR
0.000045969
Loading maneuver chart data...
Computing Atmospheric mass density...
Loading historical data...
Loading historical data...
Loading historical data...
Loading historical data...
Loading historical data...
Loading historical data...
Loading historical data...

Documentation

Showing up to 5 results
|